Stations météo

Publicité
Tarbes/Ossun, France (7621): Température de l'air & dewpoint: 14.04.2019 14:00:00 - 20.04.2019 14:00:00 (CEST)Tarbes/Ossun, France (7621): Température de l'air 5cm: 14.04.2019 14:00:00 - 20.04.2019 14:00:00 (CEST)Tarbes/Ossun, France (7621): Température de l'air -20cm & Température de l'air -100cm: 14.04.2019 14:00:00 - 20.04.2019 14:00:00 (CEST)Tarbes/Ossun, France (7621): Vitesse du vent & gusts: 14.04.2019 14:00:00 - 20.04.2019 14:00:00 (CEST)Tarbes/Ossun, France (7621): Direction du vent: 14.04.2019 14:00:00 - 20.04.2019 14:00:00 (CEST)Tarbes/Ossun, France (7621): reduced air pressure: 14.04.2019 14:00:00 - 20.04.2019 14:00:00 (CEST)Tarbes/Ossun, France (7621): visibility: 14.04.2019 14:00:00 - 20.04.2019 14:00:00 (CEST)Tarbes/Ossun, France (7621): Ensoleillement: 14.04.2019 14:00:00 - 20.04.2019 14:00:00 (CEST)Tarbes/Ossun, France (7621): Quantités de précipitations: 14.04.2019 14:00:00 - 20.04.2019 14:00:00 (CEST)
Date & Time tt [°C] td [°C] tt 5cm [°C] tt -20cm [°C] tt -100cm [°C] ff [km/h] ff [knt] fx [km/h] fx [knt] dd ppp [hPa] vv [km] sd [min] rr [mm]
20.04.2019 14:00:00 17,7 9,6 22,6 13,1 11,4 13 7 24 13 NNE 1020,6 20 50 0,0
20.04.2019 13:00:00 17,4 9,8 21,1 13,1 11,4 9 5 23 12 NNE 1021,2 27 60 0,0
20.04.2019 12:00:00 17,0 10,6 17,9 13,0 11,4 9 5 18 10 NNE 1021,1 20 60 0,0
20.04.2019 11:00:00 15,5 10,0 14,3 13,1 11,4 7 4 13 7 NNE 1021,7 10 60 0,0
20.04.2019 10:00:00 13,7 9,3 11,0 13,2 11,4 4 2 9 5 N 1022,3 20 60 0,0
20.04.2019 09:00:00 10,1 7,7 8,4 13,3 11,4 2 1 5 3 N 1023,4 19 55 0,0
20.04.2019 08:00:00 7,4 6,2 7,9 13,4 11,4 0 0 13 7 N 1023,8 22 27 0,0
20.04.2019 07:00:00 7,4 6,0 7,9 13,5 11,4 6 3 11 6 N 1023,2 16 0 0,0
20.04.2019 06:00:00 8,0 6,6 8,3 13,6 11,4 6 3 9 5 SSE 1022,9 23 0 0,0
20.04.2019 05:00:00 7,8 6,7 8,9 13,6 11,3 4 2 9 5 S 1023,4 23 0 0,0
20.04.2019 04:00:00 7,8 6,6 8,9 13,7 11,3 8 4 9 5 S 1023,8 22 0 0,0
20.04.2019 03:00:00 8,7 6,3 8,7 13,8 11,3 3 1 5 3 S 1023,6 24 0 0,0
20.04.2019 02:00:00 9,9 7,8 9,7 13,8 11,3 0 0 8 5 N 1023,7 24 0 0,0
20.04.2019 01:00:00 10,9 7,0 10,6 13,9 11,3 2 1 9 5 N 1024,1 27 0 0,0
20.04.2019 00:00:00 11,5 7,2 10,6 13,9 11,3 6 4 14 8 N 1024,2 28 0 0,0
19.04.2019 23:00:00 12,6 6,8 11,3 13,9 11,3 10 5 13 7 NNE 1023,7 29 0 0,0
19.04.2019 22:00:00 14,2 7,5 12,6 13,8 11,3 10 5 14 8 NNE 1022,9 31 0 0,0
19.04.2019 21:00:00 16,5 8,2 14,1 13,7 11,3 7 4 24 13 N 1022,0 32 0 0,0
19.04.2019 20:00:00 18,4 6,2 15,9 13,6 11,3 13 7 27 15 NE 1021,0 36 0 0,0
19.04.2019 19:00:00 19,8 7,5 18,5 13,4 11,3 14 7 24 13 NE 1020,3 41 0 0,0
19.04.2019 18:00:00 20,5 12,5 20,6 13,3 11,3 8 5 23 13 E 1020,0 35 4 0,0
19.04.2019 17:00:00 20,5 13,0 22,7 13,1 11,3 14 7 32 17 N 1020,0 31 31 0,0
19.04.2019 16:00:00 20,6 12,6 23,4 12,9 11,3 9 5 20 11 N 1020,0 30 44 0,0
19.04.2019 15:00:00 19,8 13,5 20,6 12,8 11,3 6 3 20 11 NNE 1020,3 20 12 0,0
19.04.2019 14:00:00 18,7 12,4 21,1 12,8 11,3 9 5 19 11 N 1020,2 30 14 0,0
19.04.2019 13:00:00 18,4 12,8 21,0 12,7 11,2 7 4 29 15 NNW 1020,2 24 55 0,0
19.04.2019 12:00:00 16,9 13,2 16,9 12,7 11,3 9 5 21 11 NNE 1020,2 13 21 0,0
19.04.2019 11:00:00 14,5 12,0 14,6 12,7 11,2 8 4 12 6 N 1020,1 14 0 0,0
19.04.2019 10:00:00 13,2 11,6 12,6 12,8 11,3 4 2 9 5 ENE 1019,7 14 0 0,0
19.04.2019 09:00:00 11,6 11,1 11,0 12,9 11,3 6 3 8 4 S 1019,4 17 0 0,0
19.04.2019 08:00:00 10,7 10,4 10,3 12,9 11,2 5 3 10 5 S 1019,1 15 0 0,0
19.04.2019 07:00:00 9,9 9,3 10,0 12,9 11,2 6 3 6 4 S 1018,4 9 0 0,0
19.04.2019 06:00:00 11,1 10,3 10,7 12,9 11,2 4 2 8 4 SW 1017,8 12 0 0,0
19.04.2019 05:00:00 11,6 10,5 11,2 13,0 11,2 5 3 11 6 SSW 1017,8 16 0 0,0
19.04.2019 04:00:00 12,2 11,1 11,3 13,0 11,2 6 4 18 10 WSW 1017,4 13 0 0,0
19.04.2019 03:00:00 12,4 11,1 11,5 13,1 11,2 7 4 22 12 WSW 1016,8 13 0 0,0
19.04.2019 02:00:00 12,1 11,3 10,5 13,1 11,2 7 4 13 7 WSW 1016,8 17 0 0,0
19.04.2019 01:00:00 10,7 9,3 10,5 13,2 11,2 3 1 9 5 WNW 1016,5 22 0 0,0
19.04.2019 00:00:00 11,0 9,6 10,7 13,1 11,2 4 2 9 5 WSW 1016,1 24 0 0,0
18.04.2019 23:00:00 12,1 10,0 11,2 13,2 11,2 5 3 9 5 NNW 1015,5 19 0 0,0
18.04.2019 22:00:00 13,2 10,0 11,7 13,0 11,2 7 4 13 7 NE 1015,1 20 0 0,0
18.04.2019 21:00:00 13,9 11,9 12,4 13,0 11,1 4 2 12 7 N 1014,7 23 0 0,0
18.04.2019 20:00:00 14,9 11,9 14,7 12,9 11,2 8 4 20 11 NNE 1014,3 28 0 0,0
18.04.2019 19:00:00 16,1 11,7 16,9 12,8 11,1 12 7 21 12 NNE 1014,4 29 28 0,0
18.04.2019 18:00:00 17,5 10,8 19,2 12,7 11,1 7 4 14 8 NW 1013,6 37 41 0,0
18.04.2019 17:00:00 17,1 11,8 18,9 12,7 11,1 5 3 14 8 NNW 1013,9 20 7 0,0
18.04.2019 16:00:00 16,4 11,5 16,4 12,6 11,1 2 1 14 8 SW 1014,2 20 1 0,0
18.04.2019 15:00:00 15,1 11,7 14,4 12,6 11,1 8 4 16 9 E 1014,9 20 0 0,0
18.04.2019 14:00:00 14,2 11,9 14,5 12,6 11,1 5 3 22 12 NE 1015,5 20 0 0,0
18.04.2019 13:00:00 14,8 12,3 15,8 12,6 11,1 9 5 21 11 NNE 1014,7 21 0 0,0
18.04.2019 12:00:00 14,1 11,6 16,0 12,6 11,1 9 5 18 10 NE 1014,9 20 0 0,0
18.04.2019 11:00:00 13,3 11,5 14,0 12,6 11,1 12 7 18 10 NNE 1014,1 20 0 0,0
18.04.2019 10:00:00 11,7 10,9 11,9 12,7 11,1 3 2 9 5 N 1013,6 19 0 0,0
18.04.2019 09:00:00 10,4 10,2 10,0 12,7 11,1 3 1 9 5 NW 1013,4 13 0 0,0
18.04.2019 08:00:00 9,4 9,1 9,7 12,8 11,1 2 1 8 4 ENE 1012,9 11 0 0,0
18.04.2019 07:00:00 9,0 8,7 9,6 12,9 11,1 5 3 11 6 S 1012,8 11 0 0,0
18.04.2019 06:00:00 9,2 8,7 9,5 12,9 11,1 6 4 9 5 SSW 1012,4 10 0 0,0
18.04.2019 05:00:00 10,0 9,7 9,9 12,9 11,1 0 0 6 3 N 1012,2 12 0 0,0
18.04.2019 04:00:00 10,1 9,6 10,0 13,0 11,1 2 1 6 4 NNW 1012,2 14 0 0,0
18.04.2019 03:00:00 10,4 9,9 10,3 13,0 11,1 3 1 6 3 NNE 1012,9 14 0 0,0
18.04.2019 02:00:00 10,5 9,9 10,6 13,1 11,1 2 1 9 5 N 1012,9 19 0 0,0
18.04.2019 01:00:00 10,8 10,2 10,9 13,1 11,1 5 3 12 7 N 1012,5 21 0 0,0
18.04.2019 00:00:00 11,0 10,2 10,8 13,1 11,1 9 5 14 8 N 1011,9 19 0 0,0
17.04.2019 23:00:00 12,2 10,1 10,9 13,1 11,1 8 4 19 10 N 1011,5 19 0 0,0
17.04.2019 22:00:00 13,9 11,2 12,4 13,0 11,0 10 5 23 12 NE 1011,2 24 0 0,0
17.04.2019 21:00:00 15,3 11,9 13,5 12,9 11,1 14 8 21 12 NE 1010,8 27 23 0,0
17.04.2019 20:00:00 16,8 12,3 15,5 12,8 11,0 11 6 22 12 NE 1010,7 23 19 0,0
17.04.2019 19:00:00 17,9 11,9 16,9 12,7 11,0 12 7 25 14 NE 1010,2 29 21 0,0
17.04.2019 18:00:00 19,2 12,5 19,4 12,6 11,0 11 6 29 16 NE 1010,2 31 34 0,0
17.04.2019 17:00:00 19,2 11,5 21,3 12,4 11,0 13 7 26 14 ENE 1010,4 25 43 0,0
17.04.2019 16:00:00 18,5 12,3 19,2 12,4 11,0 13 7 26 14 NE 1011,1 33 12 0,0
17.04.2019 15:00:00 17,7 12,2 18,1 12,3 11,0 13 7 24 13 NNE 1011,7 36 10 0,0
17.04.2019 14:00:00 17,0 11,3 16,6 12,2 11,0 9 5 19 11 NE 1012,2 35 0 0,0
17.04.2019 13:00:00 15,9 10,9 16,7 12,2 11,0 13 7 23 12 NNE 1012,8 41 0 0,0
17.04.2019 12:00:00 16,4 11,1 17,3 12,2 11,0 15 8 23 13 N 1012,8 40 45 0,0
17.04.2019 11:00:00 15,2 9,3 13,1 12,3 11,0 8 5 17 9 NNE 1013,0 32 57 0,0
17.04.2019 10:00:00 11,6 9,0 9,6 12,4 11,0 6 4 13 7 N 1013,4 27 60 0,0
17.04.2019 09:00:00 8,5 8,2 6,8 12,5 11,0 4 2 8 4 NNE 1014,1 20 45 0,0
17.04.2019 08:00:00 5,5 5,4 5,8 12,6 11,0 5 3 7 4 S 1014,7 24 23 0,0
17.04.2019 07:00:00 5,1 4,7 6,2 12,7 11,0 5 3 8 4 S 1014,8 22 0 0,0
17.04.2019 06:00:00 5,9 5,5 6,6 12,8 11,0 4 2 6 3 S 1014,9 26 0 0,0
17.04.2019 05:00:00 6,6 6,0 7,4 12,9 11,0 5 3 8 4 SSE 1015,5 23 0 0,0
17.04.2019 04:00:00 6,4 6,1 7,0 12,9 11,0 4 2 6 3 SSW 1016,2 22 0 0,0
17.04.2019 03:00:00 6,6 6,2 7,0 13,0 11,0 3 2 11 6 SE 1016,8 23 0 0,0
17.04.2019 02:00:00 8,6 7,5 7,2 13,1 11,0 7 4 14 7 NE 1017,4 23 0 0,0
17.04.2019 01:00:00 8,1 7,0 7,4 13,1 10,9 5 3 9 5 NW 1018,0 21 0 0,0
17.04.2019 00:00:00 9,1 7,7 7,7 13,1 10,9 3 2 8 4 E 1018,4 32 0 0,0
16.04.2019 23:00:00 10,2 7,8 8,6 13,1 11,0 3 1 13 7 SSW 1018,8 34 0 0,0
16.04.2019 22:00:00 12,5 7,6 9,7 13,0 10,9 4 2 16 9 ENE 1018,4 35 0 0,0
16.04.2019 21:00:00 14,0 7,7 11,0 12,9 10,9 6 3 20 11 E 1018,0 42 21 0,0
16.04.2019 20:00:00 15,6 7,9 13,7 12,8 10,9 8 5 24 13 E 1017,4 49 34 0,0
16.04.2019 19:00:00 16,4 7,6 16,6 12,6 10,9 11 6 24 13 ENE 1017,6 45 44 0,0
16.04.2019 18:00:00 17,2 8,3 17,6 12,5 10,9 7 4 23 13 E 1017,8 20 39 0,0
16.04.2019 17:00:00 17,1 8,8 21,1 12,3 10,9 12 6 28 15 SE 1017,9 26 57 0,0
16.04.2019 16:00:00 16,9 7,8 23,8 12,2 10,9 11 6 21 11 ESE 1018,6 60 57 0,0
16.04.2019 15:00:00 16,2 8,4 19,2 12,1 10,9 7 4 19 10 E 1019,3 55 33 0,0
16.04.2019 14:00:00 15,1 8,1 18,2 12,0 10,9 6 3 14 8 NNE 1019,9 44 6 0,0
16.04.2019 13:00:00 13,8 8,4 16,6 12,0 10,9 5 3 26 14 NNE 1020,5 49 0 0,0
16.04.2019 12:00:00 12,8 8,5 14,7 12,0 10,9 10 6 23 13 WNW 1021,0 41 25 0,0
16.04.2019 11:00:00 11,5 8,9 13,0 12,0 10,9 11 6 23 12 W 1021,4 48 0 0,0
16.04.2019 10:00:00 11,0 8,9 11,9 12,1 10,9 14 8 22 12 WSW 1021,2 42 15 0,0
16.04.2019 09:00:00 10,3 8,9 10,5 12,1 10,9 12 6 23 12 W 1020,9 43 2 0,0
16.04.2019 08:00:00 9,8 8,4 10,3 12,2 10,9 17 9 26 14 W 1020,4 51 0 0,0
16.04.2019 07:00:00 10,2 8,8 10,2 12,2 10,9 16 8 25 13 W 1019,4 58 0 0,0
16.04.2019 06:00:00 10,1 8,9 10,2 12,3 10,9 18 10 31 17 W 1018,8 49 0 0,0
16.04.2019 05:00:00 10,7 8,3 10,3 12,3 10,9 15 8 24 13 W 1018,5 34 0 0,0
16.04.2019 04:00:00 10,2 8,5 10,6 12,3 10,9 5 3 13 7 S 1018,2 50 0 0,0
16.04.2019 03:00:00 10,5 8,4 10,3 12,4 10,9 11 6 21 12 SW 1018,4 44 0 0,0
16.04.2019 02:00:00 10,3 8,6 10,3 12,4 10,9 16 8 29 16 WSW 1018,7 26 0 0,6
16.04.2019 01:00:00 10,5 8,8 10,4 12,4 10,9 23 12 47 25 WSW 1018,4 19 0 0,2
16.04.2019 00:00:00 10,8 9,6 10,7 12,4 10,9 26 14 63 34 WSW 1018,1 17 0 2,5
15.04.2019 23:00:00 12,2 10,9 12,2 12,3 10,9 32 18 61 33 W 1016,4 2,9 0 2,8
15.04.2019 22:00:00 13,3 12,7 12,9 12,3 10,9 5 3 29 15 WNW 1015,0 1,1 0 6,9
15.04.2019 21:00:00 13,5 12,6 13,0 12,2 10,9 19 11 76 41 WNW 1013,5 24 0 4,0
15.04.2019 20:00:00 17,0 9,2 14,8 12,0 10,9 7 4 19 11 NNE 1008,9 29 16 0,0
15.04.2019 19:00:00 18,3 9,9 17,0 11,8 10,9 12 6 24 13 NNE 1007,8 28 21 0,0
15.04.2019 18:00:00 19,5 11,3 18,8 11,7 10,9 16 8 24 13 NNE 1007,5 28 0 0,0
15.04.2019 17:00:00 20,7 12,1 21,4 11,5 10,9 17 9 24 13 NNE 1007,1 32 3 0,0
15.04.2019 16:00:00 21,7 12,5 21,8 11,3 10,9 11 6 24 13 NE 1007,6 46 0 0,0
15.04.2019 15:00:00 22,5 12,1 23,1 11,2 10,9 10 6 26 14 NE 1008,0 46 27 0,0
15.04.2019 14:00:00 21,8 10,3 19,9 11,1 10,9 15 8 25 14 ENE 1008,8 47 28 0,0
15.04.2019 13:00:00 20,8 11,1 19,8 11,0 10,9 11 6 26 14 NE 1009,3 55 20 0,0
15.04.2019 12:00:00 19,4 11,7 16,8 11,0 10,9 9 5 16 9 NNE 1010,2 48 49 0,0
15.04.2019 11:00:00 15,9 10,6 11,8 11,0 10,9 9 5 14 7 N 1011,5 36 60 0,0
15.04.2019 10:00:00 10,8 8,6 8,7 11,1 10,9 4 2 8 4 NW 1012,9 26 42 0,0
15.04.2019 09:00:00 8,0 7,9 6,1 11,2 10,9 2 1 7 4 SW 1014,2 20 54 0,0
15.04.2019 08:00:00 5,8 5,8 4,9 11,2 10,9 3 2 9 5 SSE 1014,8 15 20 0,0
15.04.2019 07:00:00 5,2 5,1 4,9 11,3 10,9 0 0 7 4 N 1015,1 14 0 0,0
15.04.2019 06:00:00 4,6 4,2 4,9 11,4 10,9 5 3 9 5 SW 1015,8 9 0 0,0
15.04.2019 05:00:00 5,6 5,5 4,9 11,5 10,9 0 0 5 3 N 1016,5 4,5 0 0,0
15.04.2019 04:00:00 6,0 5,7 5,3 11,6 10,9 2 1 8 5 E 1016,8 10 0 0,0
15.04.2019 03:00:00 6,0 5,3 5,8 11,6 10,9 4 2 9 5 S 1017,4 14 0 0,0
15.04.2019 02:00:00 7,1 6,4 5,9 11,7 10,9 7 4 9 5 SE 1018,2 11 0 0,0
15.04.2019 01:00:00 7,0 6,3 6,0 11,7 10,8 3 2 8 4 SW 1018,7 13 0 0,0
15.04.2019 00:00:00 8,0 6,9 6,5 11,7 10,8 5 3 7 4 SW 1018,9 16 0 0,0
14.04.2019 23:00:00 8,7 7,1 6,6 11,7 10,9 0 0 6 3 N 1018,7 17 0 0,0
14.04.2019 22:00:00 10,3 6,1 7,5 11,7 10,8 3 2 15 8 E 1018,1 20 0 0,0
14.04.2019 21:00:00 12,4 8,1 9,1 11,6 10,9 5 3 14 8 NNE 1017,4 29 0 0,0
14.04.2019 20:00:00 14,8 8,3 12,9 11,5 10,8 11 6 27 15 WNW 1016,7 32 52 0,0
14.04.2019 19:00:00 16,2 8,9 15,5 11,5 10,8 16 9 26 14 W 1016,6 19 33 0,0
14.04.2019 18:00:00 15,2 8,0 14,9 11,4 10,8 8 4 20 11 SW 1017,2 26 0 0,0
14.04.2019 17:00:00 14,6 8,1 14,5 11,3 10,9 12 7 19 11 WNW 1017,2 36 0 0,0
14.04.2019 16:00:00 14,3 6,9 15,3 11,3 10,8 10 5 23 13 NW 1017,1 41 0 0,0
14.04.2019 15:00:00 14,4 6,2 14,1 11,2 10,8 12 6 24 13 W 1017,3 36 0 0,0
14.04.2019 14:00:00 14,6 4,8 13,9 11,2 10,8 15 8 25 13 NNW 1017,3 20 0 0,0

tt = Température de l'air
td = dewpoint
tt 5cm = Température de l'air 5cm
tt -20cm = Température de l'air -20cm
tt -100cm = Température de l'air -100cm
ff = Vitesse du vent
fx = gusts
dd = Direction du vent
ppp = reduced air pressure
vv = visibility
sd = Ensoleillement
rr = Quantités de précipitations

stations d'obs. à proximité